Regional Weather Roundup
Issued by NWS Wakefield, VA

Home | Current Version | Previous Version | Text Only | Print | Product List | Glossary Off
Versions: 1 2 3 4 5 6 7 8 9 10 11 12 13 14 15 16 17 18 19 20 21 22 23 24 25 26 27 28 29 30 31 32 33 34 35 36 37 38 39 40 41 42 43 44 45 46 47 48 49 50

072
ASUS41 KAKQ 190215
RWRAKQ

REGIONAL WEATHER ROUNDUP
NATIONAL WEATHER SERVICE WAKEFIELD VA
900 PM EST WED JAN 18 2017

Note: "fair" indicates few or no clouds below 12,000 feet with no
significant weather and/or obstructions to visibility. * = Denotes
station may not report precipitation (e.g., rain,snow,etc.),
thunder or fog.

VAZ042-051-052>054-056-190300-
NORTHERN VIRGINIA

CITY           SKY/WX    TMP DP  RH WIND       PRES   REMARKS
WASH NATIONAL  MOCLDY    49  36  61 NW15      30.09S
DULLES         PTCLDY    44  33  65 NW5       30.09S
FORT BELVOIR   CLEAR     47  34  60 NW10G17   30.08S
QUANTICO       CLEAR     48  36  63 N12G22    30.10R
FREDERICKSBRG* CLEAR     47  38  68 N6        30.07S
STAFFORD*      CLEAR     46  36  68 N8        30.11F
WARRENTON      CLEAR     46  33  60 N9        30.07S
CULPEPER*      CLEAR     44  36  74 NE5       30.09R
MANASSAS*      CLEAR    N/A N/A N/A N12       30.10S
LEESBURG*      CLOUDY    45  37  76 CALM      30.10S
WINCHESTER     CLOUDY    43  34  70 NW6       30.09S
FRONT ROYAL*   CLOUDY    43  34  70 CALM      30.08S
LURAY*         FAIR      43  36  75 NE3       30.06S
$$

VAZ048-049-060>072-079>083-190300-
CENTRAL AND SOUTH CENTRAL VIRGINIA

CITY           SKY/WX    TMP DP  RH WIND       PRES   REMARKS
RICHMOND       CLEAR     48  38  68 N9        30.06R
CHESTERFIELD*  FAIR      50  27  40 NE3       30.07R
PETERSBURG*    CLEAR     37  34  87 CALM      30.06R
HANOVER        CLEAR     49  35  58 VRB3      30.08R
TAPPAHANNOCK*  CLEAR     48  31  51 N3        30.07R
QUINTON*       FAIR      50  38  63 N9        30.05R
CHARLOTTSVILLE CLEAR     47  34  60 CALM      30.05S
GORDONSVILLE*  FAIR      42  37  80 NE5       30.06R
ORANGE*          N/A     45  36  70 CALM      30.08S
LOUISA*        CLEAR     50  39  66 NE5       30.05S
BUMPASS*       FAIR      47  37  67 N6        30.07R
FARMVILLE*     CLEAR     49  38  65 W3        30.04R
CREWE*         FAIR      40  40  99 CALM      30.04S
FORT PICKETT*  FAIR      44  32  61 CALM      30.05R
CHASE CITY*    FAIR      47  34  60 NW5       30.06R
CLARKSVILLE*   FAIR      50  34  53 CALM      30.06R
SOUTH HILL*    CLEAR     40  36  86 CALM      30.10R
LAWRENCEVILLE* FAIR      46  36  67 CALM      30.05R
EMPORIA*       CLEAR     45  36  70 CALM      30.06R
$$

VAZ088>098-190300-
SOUTHEAST VIRGINIA

CITY           SKY/WX    TMP DP  RH WIND       PRES   REMARKS
NORFOLK        CLEAR     47  42  83 N5        30.03S
VIRGINIA BEACH PTCLDY    44  40  85 N7        30.03R
NORFOLK NAVAL  CLEAR     44  41  89 CALM      30.05S
WEST POINT*    CLEAR     47  36  66 CALM      30.07R
SALUDA*        FAIR      44  40  86 CALM      30.05S
NEWPORT NEWS   FOG       39  38  96 SW3       30.04S VSB 3/4
LANGLEY AFB    CLEAR     41  41  98 SW3       30.03S
FORT EUSTIS    CLEAR     42  40  92 CALM      30.02S
WILLIAMSBURG*  CLEAR     46  43  87 CALM      30.05R
HR EXEC AP*    FAIR      36  32  87 CALM      30.03R VSB 1
FRANKLIN*      CLEAR     42  41  97 CALM      30.06S FOG
US460-WAKEFLD  CLEAR     42  41  96 CALM      30.05R
$$

VAZ020-022-025-037-045-190300-
WEST CENTRAL AND SOUTHWEST VIRGINIA

CITY           SKY/WX    TMP DP  RH WIND       PRES   REMARKS
STAUNTON*      CLEAR     36  32  85 CALM      30.08R
WAYNESBORO*    FAIR      42  33  70 CALM      30.06S
HOT SPRINGS VA CLOUDY    36  36 100 W18       30.01F FOG
LYNCHBURG      CLEAR     40  34  79 CALM      30.07R
DANVILLE       CLEAR     47  37  68 N6        30.07R
SOUTH BOSTON*  FAIR      49  34  55 CALM      30.07R
MARTINSVILLE   CLOUDY    46  35  66 N7        30.09F
ROANOKE        CLOUDY    45  36  70 NW8       30.10S
BLACKSBURG     CLOUDY    41  37  84 W6        30.12F
DUBLIN*        CLOUDY    42  37  82 SW5       30.12S
MARION*        CLOUDY    39  36  90 CALM      30.12S
HILLSVILLE*    CLOUDY    39  36  89 CALM      30.08S
RICHLANDS*     FAIR     N/A N/A N/A CALM      30.10S
WISE*          CLOUDY    39  39 100 CALM      30.11F
ABINGDON*      CLOUDY    44  39  85 CALM      30.10F
$$

MDZ021>025-VAZ099-100-190300-
SOUTHERN MARYLAND AND THE DELMARVA PENINSULA

CITY           SKY/WX    TMP DP  RH WIND       PRES   REMARKS
PATUXENT RIVER MOCLDY    49  38  65 NW12      30.05R
BAY BRIDGE APT CLOUDY    46  37  71 NW9       30.07R
LEONARDTOWN    PTCLDY    46  36  66 NW6       30.08R
DOVER          CLOUDY    45  45 100 NW5       30.04R
GEORGETOWN     CLOUDY    48  42  80 NE8       30.05R
EASTON         CLOUDY    50  39  66 N5        30.10R
CAMBRIDGE      CLOUDY    46  41  81 CALM      30.06R
SALISBURY      CLOUDY    50  40  68 N7        30.04S
OCEAN CITY     NOT AVBL
WALLOPS ISLAND CLOUDY    48  44  86 E5        30.05R
ACCOMACK*      CLOUDY    49  43  79 N3        30.04S
$$

NCZ012>017-030>032-190300-
NORTH CENTRAL AND EASTERN NORTH CAROLINA

CITY           SKY/WX    TMP DP  RH WIND       PRES   REMARKS
ROANOKE RAPIDS FAIR      46  36  66 CALM      30.05R
RALEIGH        PTCLDY    53  34  48 NE5       30.05R
ELIZABETH CITY CLEAR     45  42  89 W5        30.04S
AHOSKIE*         N/A     42  42  97 CALM      30.06S
EDENTON*       PTCLDY    45  42  91 CALM      30.06S
CURRITUCK*     CLEAR     48  44  84 N3        30.04R
KILL DEVIL HLS NOT AVBL
MANTEO         CLEAR     46  45  97 N3        30.04R
CAPE HATTERAS  CLEAR     50  46  86 VRB3      30.03R
TARBORO*       NOT AVBL
GOLDSBORO      CLEAR     51  39  64 CALM      30.03R
WASHINGTON     PTCLDY    45  43  93 CALM        N/A
GREENVILLE     PTCLDY    48  45  87 CALM      30.07R
NEW BERN       CLEAR     46  43  89 CALM      30.06R
WILMINGTON     CLEAR     57  40  52 NE5       30.03R
$$

VAZ048-190300-
ELSEWHERE

CITY           SKY/WX    TMP DP  RH WIND       PRES   REMARKS
HARRISBURG PA  CLOUDY    45  37  73 NW8       30.06R
BALTIMORE      CLOUDY    47  37  68 NW9       30.07R
ANNAPOLIS      CLOUDY    50  36  58 NW10      30.07R
ANDREWS AFB    CLOUDY    47  35  63 NW12      30.06S
PHILADELPHIA   CLOUDY    46  39  76 N3        30.05R
HENDERSON NC   CLEAR     47  32  55 N3        30.06R
GREENSBORO     CLOUDY    50  38  63 NE7       30.05S
ROCKY MOUNT    CLEAR     47  39  74 CALM      30.05R
$$

VAZ100-190300-
MARINE

STATION/POSITION TIME  TEMP    WIND        PRES    WAVE   SWELL
                       AIR SEA DIR/SP/G            HT/PER HT/PER
                 (UTC) (F)     (DEG/KT/KT) (MB)    (FT/S) (FT/S)
CAPE MAY NJ      0130   45 40  360/  5/  8 1016.7F
LEWES DE         0130   44 41   30/  8/  9 1017.1F
OCEAN-CITY-INLET 0130   46 44   20/  6/ 10 1017.7R
WACHAPREAGUE VA  0130   50 50  360/  2/  2 1017.3R
THOMAS POINT MD  0100   51 39  320/ 11/ 13   N/A
GOOSES REEF MD   0150   45     310/ 10/ 10 1018.7R
COVE POINT MD    0130   49     340/ 15/ 17 1018.3R
SOLOMONS ISLAND  0130   50 42  320/  8/ 10   N/A
BISHOPS HEAD MD  0130   50 44   20/  3/  6 1017.7R
PINEY POINT MD   0130          360/ 11/ 13   N/A
POTOMAC MD       0150   47      20/  8/ 10 1016.8R
CAMBRIDGE MD     0130   47 40  330/  4/  5 1017.0R
LEWISETTA VA     0130   50 42  330/  7/  8 1017.4R
RAPPAHANNOCK LGT 0130           10/ 14/ 15 1017.6S
STINGRAY PT      0150   44      30/  8/  8 1017.6R
YORK RVR RNG VA  0130   49     320/  5/  6 1016.4R
YORKTOWN VA      0130   46 44  350/  2/  3 1016.8R
JAMESTOWN VA     0150   49     280/  4/  4   N/A
DOMINION TERM VA 0130   47     360/  3/  3 1017.0F
KIPTOPEKE VA     0130      43  360/  4/  5   N/A
CHES BAY BRIDGE  0130   46 42  360/  7/  8 1016.8F
CAPE HENRY VA    0130   46     310/  5/  7   N/A
WILLOUBY STN VA  0130   49     350/  3/  3 1017.8S
S CRANEY ISL VA  0130   47      20/  4/  5 1016.7F
CAPE HENRY BUOY  0142      47                N/A     1/ 8
OFFSHORE WE BUOY 0151      49                N/A     2/ 7
64NM E OF VA BCH 0050   52 56  350/ 17/ 21 1015.6    4/ 6   2/ 8
DUCK PIER NC     0130   49 46  330/  8/ 12 1016.0S
44100 DUCK FRF   0105      48                N/A     2/ 8
44056 DUCK FRF   0130      46                N/A     2/ 8
OREGON INLET NC  0130   46 51  330/  5/  8 1016.5R
HATTERAS NC      0130   50 55  360/ 12/ 16 1016.1R
DIAMOND SHLS NC  0050   57 72   20/ 25/ 31 1015.0    5/ 6
CAPE LOOKOUT NC  0100   52      10/ 10/ 13 1016.9R
$$




USA.gov is the U.S. government's official web portal to all federal, state and local government web resources and services.